When you browse on this site, cookies collect data to enhance your experience and personalize the content and advertising you see.
Visit our Privacy Policy to learn more. By continuing to use the site, you agree to this use of cookies and data.
  • In Schweiz
  • Länderverzeichnis
  • Für 7 Tage
  • Wassertemperatur
  • Wetterkarte
  • Widgets
  • user-avatar
    Anmelden

    Stündliche Wetter Tykhonivs'ke

    Heute, 24 Februar, Montag

    Zeit Temperatur Niederschläge Wind Luftdruck Luftfeuchtigkeit
    00:00 0°C° 0 mm 3 m/S 734 mmHg 86%
    01:00 0°C° 0 mm 3 m/S 733 mmHg 88%
    02:00 -1°C° 0 mm 3 m/S 732 mmHg 90%
    03:00 +1°C° 0.1 mm 2 m/S 731 mmHg 93%
    04:00 +1°C° 0.1 mm 2 m/S 730 mmHg 95%
    05:00 +2°C° 0.1 mm 1 m/S 730 mmHg 98%
    06:00 +1°C° 0.5 mm 2 m/S 729 mmHg 97%
    07:00 0°C° 0.5 mm 3 m/S 728 mmHg 97%
    08:00 -1°C° 0.5 mm 4 m/S 728 mmHg 97%
    09:00 -1°C° 0.3 mm 4 m/S 728 mmHg 95%
    10:00 -1°C° 0.3 mm 5 m/S 728 mmHg 93%
    11:00 0°C° 0.3 mm 5 m/S 728 mmHg 91%
    12:00 -1°C° 0 mm 6 m/S 729 mmHg 84%
    13:00 +1°C° 0 mm 6 m/S 730 mmHg 77%
    14:00 +2°C° 0 mm 7 m/S 730 mmHg 70%
    15:00 0°C° 0 mm 7 m/S 731 mmHg 71%
    16:00 0°C° 0 mm 7 m/S 731 mmHg 71%
    17:00 -1°C° 0 mm 6 m/S 732 mmHg 72%
    18:00 -1°C° 0 mm 6 m/S 733 mmHg 75%
    19:00 -2°C° 0 mm 6 m/S 734 mmHg 78%
    20:00 -2°C° 0 mm 6 m/S 734 mmHg 81%
    21:00 -2°C° 0 mm 6 m/S 735 mmHg 79%
    22:00 -3°C° 0 mm 6 m/S 736 mmHg 77%
    23:00 -3°C° 0 mm 6 m/S 736 mmHg 75%

    Morgen, 25 Februar, Dienstag

    Zeit Temperatur Niederschläge Wind Luftdruck Luftfeuchtigkeit
    00:00 -3°C° 0 mm 6 m/S 737 mmHg 75%
    01:00 -4°C° 0 mm 5 m/S 737 mmHg 76%
    02:00 -4°C° 0 mm 5 m/S 738 mmHg 77%
    03:00 -3°C° 0 mm 4 m/S 738 mmHg 78%
    04:00 -4°C° 0 mm 4 m/S 738 mmHg 80%
    05:00 -4°C° 0 mm 3 m/S 738 mmHg 82%
    06:00 -4°C° 0 mm 3 m/S 738 mmHg 81%
    07:00 -4°C° 0 mm 3 m/S 739 mmHg 81%
    08:00 -2°C° 0 mm 3 m/S 739 mmHg 81%
    09:00 -1°C° 0 mm 3 m/S 739 mmHg 75%
    10:00 0°C° 0 mm 3 m/S 738 mmHg 69%
    11:00 0°C° 0 mm 4 m/S 738 mmHg 64%
    12:00 0°C° 0 mm 4 m/S 738 mmHg 62%
    13:00 +1°C° 0 mm 4 m/S 738 mmHg 61%
    14:00 +1°C° 0 mm 5 m/S 738 mmHg 60%
    15:00 +1°C° 0 mm 4 m/S 737 mmHg 66%
    16:00 0°C° 0 mm 4 m/S 736 mmHg 73%
    17:00 0°C° 0 mm 3 m/S 736 mmHg 79%
    18:00 -1°C° 0.1 mm 4 m/S 735 mmHg 85%
    19:00 -1°C° 0.1 mm 5 m/S 735 mmHg 91%
    20:00 -1°C° 0.1 mm 5 m/S 735 mmHg 97%
    21:00 0°C° 0.1 mm 5 m/S 734 mmHg 95%
    22:00 0°C° 0.1 mm 5 m/S 734 mmHg 94%
    23:00 0°C° 0.1 mm 5 m/S 733 mmHg 93%

    übermorgen, 26 Februar, Mittwoch

    Zeit Temperatur Niederschläge Wind Luftdruck Luftfeuchtigkeit
    00:00 0°C° 0 mm 5 m/S 733 mmHg 92%
    01:00 0°C° 0 mm 5 m/S 733 mmHg 92%
    02:00 +1°C° 0 mm 5 m/S 733 mmHg 92%
    03:00 +1°C° 0 mm 5 m/S 732 mmHg 93%
    04:00 +1°C° 0 mm 5 m/S 732 mmHg 93%
    05:00 +1°C° 0 mm 4 m/S 731 mmHg 94%
    06:00 +1°C° 0.2 mm 5 m/S 731 mmHg 94%
    07:00 +1°C° 0.2 mm 5 m/S 731 mmHg 95%
    08:00 +1°C° 0.2 mm 5 m/S 731 mmHg 96%
    09:00 +1°C° 0.6 mm 5 m/S 731 mmHg 95%
    10:00 +1°C° 0.6 mm 5 m/S 730 mmHg 95%
    11:00 +2°C° 0.6 mm 5 m/S 730 mmHg 95%
    12:00 +3°C° 0.2 mm 4 m/S 731 mmHg 94%
    13:00 +3°C° 0.2 mm 4 m/S 731 mmHg 93%
    14:00 +3°C° 0.2 mm 3 m/S 731 mmHg 92%
    15:00 +3°C° 0 mm 3 m/S 731 mmHg 93%
    16:00 +4°C° 0 mm 2 m/S 731 mmHg 95%
    17:00 +4°C° 0 mm 2 m/S 731 mmHg 96%
    18:00 +4°C° 0 mm 2 m/S 731 mmHg 96%
    19:00 +4°C° 0 mm 2 m/S 731 mmHg 96%
    20:00 +3°C° 0 mm 2 m/S 731 mmHg 97%
    21:00 +4°C° 0.1 mm 2 m/S 731 mmHg 96%
    22:00 +4°C° 0.1 mm 2 m/S 731 mmHg 95%
    23:00 +4°C° 0.1 mm 2 m/S 731 mmHg 95%

    27 Februar, Donnerstag

    Zeit Temperatur Niederschläge Wind Luftdruck Luftfeuchtigkeit
    00:00 +4°C° 0.2 mm 2 m/S 731 mmHg 94%
    01:00 +4°C° 0.2 mm 2 m/S 730 mmHg 94%
    02:00 +4°C° 0.2 mm 2 m/S 730 mmHg 94%
    03:00 +3°C° 0.5 mm 3 m/S 730 mmHg 94%
    04:00 +3°C° 0.5 mm 3 m/S 729 mmHg 94%
    05:00 +3°C° 0.5 mm 4 m/S 729 mmHg 94%
    06:00 +3°C° 0 mm 4 m/S 729 mmHg 93%
    07:00 +3°C° 0 mm 4 m/S 729 mmHg 93%
    08:00 +3°C° 0 mm 4 m/S 729 mmHg 92%
    09:00 +4°C° 0.3 mm 4 m/S 729 mmHg 91%
    10:00 +4°C° 0.3 mm 4 m/S 729 mmHg 91%
    11:00 +4°C° 0.3 mm 4 m/S 729 mmHg 90%
    12:00 +4°C° 0.8 mm 4 m/S 729 mmHg 91%
    13:00 +4°C° 0.8 mm 4 m/S 729 mmHg 93%
    14:00 +4°C° 0.8 mm 4 m/S 729 mmHg 94%
    15:00 +4°C° 0.3 mm 4 m/S 730 mmHg 91%
    16:00 +4°C° 0.3 mm 3 m/S 730 mmHg 88%
    17:00 +4°C° 0.3 mm 3 m/S 730 mmHg 85%
    18:00 +3°C° 0 mm 3 m/S 731 mmHg 84%
    19:00 +1°C° 0 mm 4 m/S 731 mmHg 82%
    20:00 +1°C° 0 mm 4 m/S 732 mmHg 81%
    21:00 0°C° 0 mm 4 m/S 732 mmHg 80%
    22:00 0°C° 0 mm 3 m/S 732 mmHg 79%
    23:00 0°C° 0 mm 3 m/S 732 mmHg 78%

    28 Februar, Freitag

    Zeit Temperatur Niederschläge Wind Luftdruck Luftfeuchtigkeit
    00:00 -1°C° 0 mm 3 m/S 732 mmHg 79%
    01:00 -2°C° 0 mm 4 m/S 732 mmHg 80%
    02:00 -2°C° 0 mm 4 m/S 732 mmHg 81%
    03:00 -2°C° 0 mm 4 m/S 732 mmHg 79%
    04:00 -3°C° 0 mm 4 m/S 732 mmHg 76%
    05:00 -3°C° 0 mm 4 m/S 732 mmHg 73%
    06:00 -3°C° 0 mm 4 m/S 732 mmHg 71%
    07:00 -4°C° 0 mm 5 m/S 732 mmHg 68%
    08:00 -4°C° 0 mm 5 m/S 732 mmHg 66%
    09:00 -4°C° 0 mm 5 m/S 732 mmHg 62%
    10:00 -2°C° 0 mm 5 m/S 732 mmHg 58%
    11:00 -2°C° 0 mm 5 m/S 733 mmHg 54%
    12:00 -2°C° 0 mm 5 m/S 733 mmHg 52%
    13:00 -1°C° 0 mm 5 m/S 733 mmHg 49%
    14:00 -1°C° 0 mm 5 m/S 733 mmHg 46%
    15:00 -2°C° 0 mm 4 m/S 733 mmHg 49%
    16:00 -1°C° 0 mm 3 m/S 733 mmHg 51%
    17:00 -2°C° 0 mm 3 m/S 733 mmHg 53%
    18:00 -2°C° 0 mm 3 m/S 733 mmHg 57%
    19:00 -4°C° 0 mm 3 m/S 733 mmHg 60%
    20:00 -3°C° 0 mm 2 m/S 734 mmHg 64%
    21:00 -4°C° 0 mm 3 m/S 733 mmHg 63%
    22:00 -2°C° 0 mm 3 m/S 733 mmHg 62%
    23:00 -2°C° 0 mm 3 m/S 733 mmHg 61%

    29 Februar, Samstag

    Zeit Temperatur Niederschläge Wind Luftdruck Luftfeuchtigkeit
    00:00 -3°C° 0.1 mm 4 m/S 732 mmHg 68%
    01:00 -4°C° 0.1 mm 5 m/S 732 mmHg 74%
    02:00 -4°C° 0.1 mm 5 m/S 731 mmHg 81%
    03:00 -4°C° 0.4 mm 5 m/S 731 mmHg 86%
    04:00 -2°C° 0.4 mm 5 m/S 730 mmHg 91%
    05:00 -2°C° 0.4 mm 5 m/S 730 mmHg 96%
    06:00 -1°C° 0.2 mm 5 m/S 730 mmHg 96%
    07:00 -1°C° 0.2 mm 4 m/S 730 mmHg 96%
    08:00 -1°C° 0.2 mm 4 m/S 730 mmHg 95%
    09:00 -1°C° 0.1 mm 4 m/S 730 mmHg 95%
    10:00 -1°C° 0.1 mm 4 m/S 730 mmHg 94%
    11:00 0°C° 0.1 mm 4 m/S 731 mmHg 93%
    12:00 0°C° 0.1 mm 4 m/S 731 mmHg 92%
    13:00 0°C° 0.1 mm 4 m/S 731 mmHg 90%
    14:00 0°C° 0.1 mm 4 m/S 731 mmHg 88%
    15:00 0°C° 0 mm 4 m/S 731 mmHg 89%
    16:00 +1°C° 0 mm 3 m/S 732 mmHg 90%
    17:00 0°C° 0 mm 3 m/S 732 mmHg 91%
    18:00 0°C° 0 mm 3 m/S 732 mmHg 92%
    19:00 -1°C° 0 mm 3 m/S 732 mmHg 92%
    20:00 -1°C° 0 mm 3 m/S 732 mmHg 93%
    21:00 -1°C° 0.1 mm 3 m/S 732 mmHg 93%
    22:00 -1°C° 0.1 mm 2 m/S 732 mmHg 94%
    23:00 -1°C° 0.1 mm 2 m/S 732 mmHg 94%
    Mehr zeigen